Overview Statistics Trail Chart Weather Telemetry Raw packets
 

This is the latest recevied weather packets stored in our database for station/object OE5RBO. If no packets are shown the sender has not sent any weather packets the latest 10 day(s).

<< 9 10 11 12 13 14 15 >>
Time Temp. Humidity Pressure Rain* Wind** Luminosity Snow
1788476120 18.89° C 88% 1022.5 hPa 0 mm - - -
1788475519 18.89° C 88% 1022.4 hPa 0 mm - - -
1788474919 18.89° C 88% 1022.6 hPa 0 mm - - -
1788473719 19.44° C 85% 1022.5 hPa 0 mm - - -
1788472518 19.44° C 84% 1022.5 hPa 0 mm - - -
1788471917 19.44° C 87% 1022.4 hPa 0 mm - - -
1788471317 19.44° C 81% 1022.5 hPa 0 mm - - -
1788470716 19.44° C 82% 1022.5 hPa 0 mm - - -
1788470116 19.44° C 84% 1022.5 hPa 0 mm - - -
1788468915 19.44° C 87% 1022.5 hPa 0 mm - - -
1788468315 20° C 87% 1022.4 hPa 0 mm - - -
1788467715 20° C 83% 1022.3 hPa 0 mm - - -
1788467114 20° C 82% 1022.3 hPa 0 mm - - -
1788466514 20° C 81% 1022.4 hPa 0 mm - - -
1788465914 20° C 81% 1022.3 hPa 0 mm - - -
1788465314 20° C 78% 1022.1 hPa 0 mm - - -
1788464713 20° C 76% 1022.2 hPa 0 mm - - -
1788464113 20° C 78% 1022.1 hPa 0 mm - - -
1788463512 20° C 80% 1022 hPa 0 mm - - -
1788462912 19.44° C 80% 1021.8 hPa 0 mm - - -
1788462312 19.44° C 81% 1021.8 hPa 0 mm - - -
1788461711 19.44° C 83% 1021.7 hPa 0 mm - - -
1788461111 20° C 84% 1021.6 hPa 0 mm - - -
1788460511 21.11° C 76% 1021.7 hPa 0 mm - - -
1788459310 22.22° C 67% 1021.6 hPa 0 mm - - -

* Rain since midnight (hover to see other rain measurements)
** Current wind speed in m/s (hover to see current wind gust speed)